Dewpoint
65 66 66 68 68 68 68 68 68 69 68 67 67 69 68 67 66 67 68 67 69 70 70 70 69 69 69 70 71 70 70 70 70
64 65 65 66 68 68 68 68 68 68 68 67 67 68 67 65 65 66 67 67 68 69 69 69 69 69 69 68 69 70 70 70 70
60 63 64 66 67 67 67 68 68 68 67 68 67 67 66 65 65 65 66 69 68 68 69 69 69 69 69 69 68 69 69 69 69
60 62 64 65 66 67 67 67 66 66 67 67 67 66 65 64 65 66 66 68 67 68 69 69 69 69 69 69 69 68 68 68 68
62 63 64 65 66 66 66 66 65 66 66 66 65 64 64 63 64 65 67 69 68 68 68 68 69 69 69 69 69 69 69 68 67
56 59 62 65 66 66 66 65 65 65 64 63 63 62 61 62 63 65 67 67 67 67 68 68 67 68 69 68 68 68 67 66 67
55 57 60 62 63 64 66 65 64 61 59 59 60 59 61 61 62 64 67 67 66 67 68 68 68 67 68 66 66 65 64 64 64
52 53 55 56 59 60 61 60 60 59 59 58 58 58 59 60 61 63 66 66 66 67 67 67 67 67 68 66 65 63 63 62 62
49 51 51 53 55 57 58 58 58 58 57 57 57 57 57 58 59 61 64 66 66 66 67 67 67 66 66 65 63 63 63 62 61
49 48 49 51 53 54 54 55 57 56 56 55 55 55 55 55 56 57 61 64 66 65 65 66 66 65 64 63 63 63 62 62 62
48 46 48 49 52 53 53 53 55 54 54 53 52 52 52 51 52 53 55 60 64 65 64 64 64 64 63 63 63 63 63 63 63
46 45 46 48 51 52 52 52 53 52 51 50 49 49 48 48 48 49 51 53 58 62 64 64 64 64 64 63 63 63 63 62 61
44 43 44 47 50 51 50 50 50 51 50 48 48 46 46 45 46 46 48 49 50 55 59 61 63 63 63 63 63 63 63 63 63
42 42 42 47 49 49 50 48 49 49 47 46 45 44 43 43 42 42 43 44 45 46 52 55 58 62 62 62 62 61 61 62 61
40 41 42 46 48 48 48 47 46 47 45 43 42 43 42 41 40 40 40 41 41 43 44 46 49 56 61 61 61 61 61 61 61
39 40 42 45 47 47 47 45 45 44 44 42 42 41 41 40 39 39 38 38 38 39 41 43 44 47 55 59 59 60 60 59 58
38 39 41 44 45 46 46 45 44 43 43 40 39 37 38 39 38 38 37 36 36 35 35 39 42 44 47 53 57 59 59 59 57
37 37 40 42 44 46 45 44 42 41 41 40 39 36 34 36 38 36 36 35 34 34 32 35 38 41 45 48 51 56 56 56 55
36 36 38 40 42 44 44 44 42 42 40 39 39 38 38 34 34 36 35 35 33 33 31 30 34 38 41 45 50 53 54 53 52
35 36 36 37 40 41 43 42 41 42 41 39 37 35 36 37 34 32 33 35 34 34 32 30 31 34 38 41 47 51 49 48 49
Lifted_Index
-2 -2 -3 -4 -4 -4 -4 -3 -3 -3 -2 -2 -2 -1 -1 -1 -1 -1 -2 -2 -2 -2 -3 -3 -2 -2 -2 -2 -3 -3 -3 -3 -3
-1 -1 -2 -3 -4 -4 -4 -3 -3 -3 -2 -2 -2 -1 -1 -1 -1 -2 -2 -2 -2 -2 -3 -3 -3 -3 -2 -2 -2 -3 -3 -2 -2
1 0 -1 -2 -3 -3 -3 -3 -3 -2 -2 -2 -1 -1 -0 -0 -1 -2 -2 -2 -2 -3 -3 -3 -3 -3 -3 -2 -2 -2 -2 -2 -2
2 1 -0 -1 -2 -3 -2 -2 -2 -2 -1 -1 -1 -0 -0 -1 -1 -2 -2 -2 -2 -3 -3 -3 -3 -3 -3 -3 -3 -2 -2 -2 -2
2 2 0 -1 -1 -2 -2 -1 -1 -1 -1 -1 -1 -0 -0 -1 -1 -2 -2 -2 -2 -2 -2 -2 -2 -2 -3 -3 -3 -2 -2 -2 -2
3 3 2 1 -0 -1 -1 -1 0 0 0 -0 -0 -0 -0 -0 -1 -1 -2 -2 -2 -2 -2 -2 -2 -2 -2 -2 -1 -1 -1 -1 -1
5 4 3 2 1 1 0 1 1 1 1 0 0 0 0 0 -0 -1 -1 -1 -1 -2 -2 -2 -2 -1 -1 -1 -0 0 1 1 1
6 5 5 4 3 2 2 2 3 2 1 1 1 1 1 1 0 0 -0 -1 -1 -2 -2 -2 -1 -1 -1 0 1 2 2 2 2
8 7 6 5 4 4 3 3 3 3 2 1 1 1 2 1 1 1 0 -0 -1 -1 -1 -1 -1 -1 0 1 2 2 2 2 2
9 8 7 6 5 4 4 4 4 3 3 3 2 2 3 3 2 2 2 1 0 -0 -1 -1 -1 0 1 1 2 2 2 2 2
10 9 8 6 6 5 5 5 4 4 4 4 4 3 4 4 3 3 3 2 1 1 0 -0 -0 0 1 1 1 1 1 1 1
10 9 8 7 6 6 6 6 5 5 5 5 4 4 4 4 4 4 4 4 3 2 1 1 1 1 1 1 1 1 1 1 1
10 10 9 8 7 6 6 7 6 6 6 5 5 5 5 5 5 5 5 6 5 4 3 2 1 1 1 2 2 2 1 1 1
11 11 10 9 7 7 7 7 7 7 7 6 6 6 6 5 5 6 6 6 6 5 4 3 2 2 2 2 2 2 2 2 1
12 11 11 9 8 7 7 7 7 8 8 7 7 7 7 6 6 6 6 7 6 6 5 4 4 3 3 3 3 2 2 2 2
12 12 11 10 9 8 7 8 8 9 9 8 9 9 8 8 8 8 8 8 7 7 6 6 5 5 4 4 3 3 3 3 3
12 12 12 11 10 9 8 8 9 9 9 10 10 10 10 10 10 10 10 10 9 9 8 7 7 6 5 4 4 4 4 4 4
12 12 12 12 11 10 9 9 10 10 10 11 11 11 11 11 11 11 11 11 11 11 10 9 8 7 6 5 5 5 5 5 5
13 13 13 13 12 11 10 10 10 11 11 12 13 12 12 11 11 11 11 12 12 12 12 11 10 9 8 7 6 6 6 6 6
13 13 13 13 13 11 10 10 10 11 12 13 13 13 12 11 10 10 11 12 12 13 12 12 11 10 9 8 7 7 7 8 8